Regional Weather Roundup
Issued by NWS

Home | Current Version | Previous Version | Text Only | Print | Product List | Glossary On
Versions: 1 2 3 4 5 6 7 8 9 10 11 12 13 14 15 16 17 18 19 20 21 22 23 24 25 26 27 28 29 30 31 32 33 34 35 36 37 38 39 40 41 42 43 44 45 46 47 48 49 50
000
ASUS42 KFFC 262010
RWRGA
WEATHER ROUNDUP FOR GEORGIA
NATIONAL WEATHER SERVICE PEACHTREE CITY GA
400 PM EDT WED JUL 26 2017

NOTE: "FAIR" INDICATES FEW OR NO CLOUDS BELOW 12,000 FEET WITH NO
SIGNIFICANT WEATHER AND/OR OBSTRUCTIONS TO VISIBILITY.

* = USE WITH CAUTION. THE STATIONS MARKED WITH AN ASTERISK MAY NOT
REPORT WEATHER SUCH AS PRECIPITATION, FOG, OR THUNDER AND ARE NOT
QUALITY CONTROLLED BY NWS.

THE REMARK "TC" DENOTES TEMPERATURE READING IN DEGREES CELSIUS.

GAZ001>058-262100-
NORTH GEORGIA

CITY           SKY/WX    TMP DP  RH WIND       PRES   REMARKS
ATLANTA        MOSUNNY   92  66  42 CALM      30.09F HX  94
ATHENS         RAIN      78  75  90 VRB3G17   30.09S FOG
CHAMBLEE       MOSUNNY   92  68  45 CALM      30.08F HX  96
PEACHTREE CITY SUNNY     93  69  45 VRB6      30.08F HX  98
ROME           MOSUNNY   97  68  38 NW3       30.07F HX 102
WEST ATLANTA   SUNNY     93  69  45 NE5       30.07F HX  98
GAINESVILLE    MOSUNNY   90  69  50 VRB5      30.12F HX  94
CARTERSVILLE   MOSUNNY   93  73  52 SE3       30.09S HX 102


CITY           SKY/WX    TMP DP  RH WIND       PRES   REMARKS
LAWRENCEVILLE* PTSUNNY   91  72  52 CALM      30.10F HX  98
MARIETTA       MOSUNNY   93  65  40 CALM      30.09F HX  95
KENNESAW*      MOSUNNY   91  64  40 CALM      30.10F HX  93
CANTON*        MOSUNNY   93  68  43 CALM      30.12F HX  97
$$

GAZ059>098-102>109-262100-
CENTRAL GEORGIA

CITY           SKY/WX    TMP DP  RH WIND       PRES   REMARKS
AUGUSTA-BUSH   TSTM      76  72  87 NW9       30.09R FOG
AUGUSTA-DANIEL TSTM      76  69  79 VRB3      30.12R
COLUMBUS       CLOUDY    90  73  57 W5        30.05F HX  98
MACON          SUNNY     93  71  48 NE3       30.04F THUNDER HX 100
ROBINS AFB     MOSUNNY   92  72  51 SE7       30.04F HX  99


CITY           SKY/WX    TMP DP  RH WIND       PRES   REMARKS
LAGRANGE*      CLOUDY    95  71  45 N8        30.08S HX 102
SYLVANIA*      MOSUNNY   83  76  79 SE3       30.09S HX  92
MILLEDGEVILLE* SUNNY     75  73  94 NW3       30.07F
$$

GAZ099>101-110>166-262100-
SOUTH GEORGIA

CITY           SKY/WX    TMP DP  RH WIND       PRES   REMARKS
SAVANNAH       CLOUDY    84  74  71 VRB5      30.07F HX  91
VALDOSTA       MOSUNNY   84  77  79 CALM      30.04F HX  94
ALMA           MOSUNNY   88  75  65 S6        30.03F HX  97
ST SIMONS      LGT RAIN  80  77  90 E8        30.05F
FT STEWART     CLOUDY    78  75  91 E5        30.06S
ALBANY         PTSUNNY   93  74  53 N8        30.06F HX 103
MOODY AFB      PTSUNNY   80  74  81 CALM      30.03F
BRUNSWICK      TSTM      75  73  94 W8        30.08R


CITY           SKY/WX    TMP DP  RH WIND       PRES   REMARKS
BAINBRIDGE*    MOSUNNY   93  81  66 E7        30.04F HX 113
MOULTRIE*      SUNNY     88  72  58 N7        30.05F HX  94
VIDALIA*       PTSUNNY   88  75  66 E12       30.07S HX  97
WAYCROSS*      MOSUNNY   84  80  89 CALM      30.05F HX  97
DOUGLAS*       MOSUNNY   84  73  70 W3        30.06F HX  91
$$




USA.gov is the U.S. government's official web portal to all federal, state and local government web resources and services.